DW8626 Madrid ES current weather conditions

sailwx.info

Wind from 263

Air temperature 21.1° C
Dewpoint 6.6° C

Last reported at 2015-May-25 10:48 UTC.
Time now 2015-May-25 11:28 UTC

Location: N 40°29' W 003°43'.
View on Google Maps.

See reports from other nearby stations

  
Tides and Currents Weather Stations Pressure Air Temp Water Temp Dewpoint Dewpoint Depression Visibility Wind Speed Wind Dir Waves Ship Positions
date/time (UTC)wind fromknots sea level pressurealtimeterstation pressurevisibilityair tempwater tempwave heightnotes
2015-May-25 10:48 263 21.1
2015-May-25 10:33 141 21.7
2015-May-25 10:05 001 20.6
2015-May-25 09:48 050 20.6
2015-May-25 09:33 124 1 gusting 6 20.0
2015-May-25 09:18 135 0 gusting 7 18.9
2015-May-25 09:03 098 2 gusting 8 18.3
2015-May-25 08:48 110 2 gusting 8 18.3
2015-May-25 08:33 015 4 gusting 10 17.2
2015-May-25 08:18 041 17.2
2015-May-25 08:03 048 6 gusting 10 16.7
2015-May-25 07:50 011 16.1
2015-May-25 07:35 041 8 gusting 12 15.6
2015-May-25 07:18 005 4 gusting 10 15.0
2015-May-25 07:03 039 2 gusting 9 15.0
2015-May-25 06:48 054 6 gusting 11 15.0
2015-May-25 06:34 231 0 gusting 12 14.4
2015-May-25 06:19 051 6 gusting 9 13.9
2015-May-25 06:04 048 0 gusting 10 13.9
2015-May-25 05:48 019 5 gusting 10 13.9
2015-May-25 05:34 011 6 gusting 8 13.3
2015-May-25 05:05 056 5 gusting 9 13.3
2015-May-25 04:48 049 4 gusting 11 13.3
2015-May-25 04:33 044 4 gusting 8 13.9
2015-May-25 04:18 018 5 gusting 8 13.9
2015-May-25 04:03 054 6 gusting 11 13.9
2015-May-25 03:48 056 5 gusting 8 13.9
2015-May-25 03:33 037 5 gusting 10 13.9
2015-May-25 03:18 043 4 gusting 13 13.9
2015-May-25 03:03 044 5 gusting 11 13.9
2015-May-25 02:50 012 7 gusting 10 13.9
2015-May-25 02:35 026 3 gusting 12 13.9
2015-May-25 02:18 013 6 gusting 13 13.9
2015-May-25 02:03 045 6 gusting 9 14.4
2015-May-25 01:48 036 8 gusting 12 14.4
2015-May-25 01:33 040 6 gusting 14 14.4
2015-May-25 01:18 070 6 gusting 11 14.4
2015-May-25 01:03 070 10 gusting 14 14.4
2015-May-25 00:48 057 4 gusting 10 14.4
2015-May-25 00:33 044 6 gusting 10 14.4
2015-May-25 00:20 056 6 gusting 14 14.4
2015-May-25 00:05 033 13 gusting 13 15.0
2015-May-24 23:48 026 4 gusting 12 15.0
2015-May-24 23:34 004 3 gusting 17 15.6
2015-May-24 23:18 041 8 gusting 16 15.6
2015-May-24 23:03 029 9 gusting 19 16.1
2015-May-24 22:48 082 8 gusting 18 16.1
2015-May-24 22:33 049 7 gusting 20 16.7
2015-May-24 22:18 104 8 gusting 20 16.7
2015-May-24 22:03 082 11 gusting 19 17.2
2015-May-24 21:50 028 13 gusting 16 17.2
2015-May-24 21:35 030 9 gusting 19 17.8
2015-May-24 21:18 019 9 gusting 19 18.3
2015-May-24 21:04 059 13 gusting 20 18.3
2015-May-24 20:48 027 6 gusting 14 18.9
2015-May-24 20:34 043 6 gusting 15 19.4
2015-May-24 20:18 049 5 gusting 8 20.0
2015-May-24 20:03 058 6 gusting 9 20.0
2015-May-24 19:48 081 4 gusting 10 20.0
2015-May-24 19:34 013 5 gusting 10 20.6
2015-May-24 19:21 038 7 gusting 7 20.6
2015-May-24 19:05 066 0 gusting 11 21.1
2015-May-24 18:48 041 5 gusting 11 21.1
2015-May-24 18:33 110 4 gusting 8 21.7
2015-May-24 18:18 096 1 gusting 10 21.7
2015-May-24 18:03 093 6 gusting 6 21.7
2015-May-24 17:48 120 3 gusting 7 22.2
2015-May-24 17:18 032 5 gusting 9 22.2
2015-May-24 17:03 113 22.2
2015-May-24 16:50 095 22.2
2015-May-24 16:35 300 22.2
2015-May-24 16:18 039 4 gusting 8 21.7
2015-May-24 16:04 102 0 gusting 6 21.7
2015-May-24 15:48 070 1 gusting 6 22.2
2015-May-24 15:33 083 0 gusting 8 22.2
2015-May-24 15:18 096 0 gusting 3 23.3
2015-May-24 15:04 313 22.8
2015-May-24 14:49 044 6 gusting 10 22.8
2015-May-24 14:33 023 4 gusting 11 22.2
2015-May-24 14:05 037 1 gusting 11 21.7
2015-May-24 13:48 297 0 gusting 7 22.2
2015-May-24 13:33 077 0 gusting 8 21.7
2015-May-24 13:19 135 0 gusting 10 21.1
2015-May-24 13:04 046 4 gusting 8 20.6
2015-May-24 12:49 049 1 gusting 11 21.1
2015-May-24 12:34 080 21.7
2015-May-24 12:18 160 3 gusting 7 21.1
2015-May-24 12:03 144 20.6
2015-May-24 11:50 110 20.0
2015-May-24 11:35 115 4 gusting 7 20.0
2015-May-24 11:18 094 2 gusting 9 20.0
2015-May-24 11:03 108 4 gusting 6 20.0
2015-May-24 10:48 099 4 gusting 7 19.4
2015-May-24 10:33 074 6 gusting 11 18.9
2015-May-24 10:18 048 11 gusting 13 18.9
2015-May-24 10:03 068 6 gusting 18 17.8
2015-May-24 09:48 098 2 gusting 14 17.8
2015-May-24 09:33 074 6 gusting 18 17.2
2015-May-24 09:21 060 8 gusting 16 17.2
2015-May-24 09:05 044 12 gusting 16 16.1
2015-May-24 08:48 051 13 gusting 17 15.6
2015-May-24 08:33 053 13 gusting 19 15.0
2015-May-24 08:18 347 13 gusting 23 14.4
2015-May-24 08:04 057 6 gusting 19 14.4
2015-May-24 07:49 046 14 gusting 18 13.9
2015-May-24 07:33 359 11 gusting 18 13.9
2015-May-24 07:19 039 14 gusting 20 12.8
2015-May-24 07:03 047 11 gusting 19 12.8
2015-May-24 06:51 048 14 gusting 17 12.2
2015-May-24 06:33 058 12 gusting 21 12.2
2015-May-24 06:18 043 13 gusting 21 11.7
2015-May-24 06:03 050 13 gusting 21 11.7
2015-May-24 05:49 053 10 gusting 21 11.7
2015-May-24 05:33 012 9 gusting 15 11.7
2015-May-24 05:18 039 9 gusting 16 11.7
2015-May-24 05:04 026 8 gusting 16 11.1
2015-May-24 04:48 029 8 gusting 16 11.1
2015-May-24 04:33 020 7 gusting 11 11.1
2015-May-24 04:05 027 10 gusting 17 11.7
2015-May-24 03:48 022 7 gusting 16 11.7
2015-May-24 03:33 039 6 gusting 14 11.7
2015-May-24 03:18 043 6 gusting 18 11.7
2015-May-24 03:04 019 8 gusting 19 11.7
2015-May-24 02:48 064 11 gusting 16 11.7
2015-May-24 02:33 056 9 gusting 19 11.7
2015-May-24 02:18 036 4 gusting 21 11.7
2015-May-24 02:03 032 11 gusting 19 11.7
2015-May-24 01:35 065 9 gusting 16 12.2
2015-May-24 01:18 063 6 gusting 18 12.2
2015-May-24 01:03 045 6 gusting 18 12.2
2015-May-24 00:48 043 8 gusting 18 12.8
2015-May-24 00:33 060 10 gusting 19 12.8
2015-May-24 00:18 065 4 gusting 19 12.8
2015-May-24 00:03 040 4 gusting 19 13.3
2015-May-23 23:48 051 6 gusting 23 13.9
2015-May-23 23:34 051 6 gusting 16 13.9
2015-May-23 23:20 105 6 gusting 19 14.4
2015-May-23 23:05 020 11 gusting 19 14.4
2015-May-23 22:48 052 13 gusting 22 14.4
2015-May-23 22:33 052 10 gusting 22 15.0
2015-May-23 22:18 063 12 gusting 25 15.0
2015-May-23 22:03 039 8 gusting 22 15.6
2015-May-23 21:48 047 6 gusting 17 15.6
2015-May-23 21:33 015 9 gusting 18 16.1
2015-May-23 21:18 006 6 gusting 15 16.1
2015-May-23 21:03 021 12 gusting 16 16.7
2015-May-23 20:50 338 12 gusting 15 16.7
2015-May-23 20:35 043 5 gusting 14 17.2
2015-May-23 20:18 081 13 gusting 18 17.8
2015-May-23 20:04 026 6 gusting 16 18.3
2015-May-23 19:49 283 18.3
2015-May-23 19:34 070 4 gusting 14 18.9
2015-May-23 19:19 032 8 gusting 17 19.4
2015-May-23 19:04 053 5 gusting 13 19.4
2015-May-23 18:34 083 6 gusting 11 20.0
2015-May-23 18:21 134 6 gusting 8 20.6
2015-May-23 17:48 188 5 gusting 12 21.1
2015-May-23 17:34 131 7 gusting 10 21.1
2015-May-23 17:19 037 6 gusting 13 21.1
2015-May-23 17:03 060 2 gusting 15 21.1
2015-May-23 16:49 023 6 gusting 19 21.1
2015-May-23 16:34 047 4 gusting 14 21.1
2015-May-23 16:18 020 6 gusting 13 21.1
2015-May-23 16:04 045 2 gusting 16 21.1
2015-May-23 15:19 094 0 gusting 14 20.6
2015-May-23 15:04 043 10 gusting 14 20.6
2015-May-23 14:49 012 6 gusting 11 20.6
2015-May-23 14:33 018 6 gusting 11 20.0
2015-May-23 14:19 066 2 gusting 12 19.4
2015-May-23 13:48 037 6 gusting 17 19.4
2015-May-23 13:34 043 0 gusting 12 19.4
2015-May-23 13:04 104 5 gusting 13 18.9
2015-May-23 12:49 026 3 gusting 11 19.4
2015-May-23 12:34 120 1 gusting 10 18.9
2015-May-23 12:19 091 4 gusting 10 18.9
2015-May-23 12:04 073 6 gusting 12 17.8
2015-May-23 11:49 052 6 gusting 14 17.2
2015-May-23 11:34 014 11 gusting 13 17.2
2015-May-23 11:19 076 3 gusting 14 17.2
2015-May-23 11:04 013 11 gusting 13 16.7